Flag for U.S.A. Weather past 2 weeks in Warminster Township, Pennsylvania, U.S.A.

Now
30 °F

Overcast.


Feels Like: 23 °F
Forecast: 25 / 38 °F
Wind: 7 mph from North

Location: Doylestown Airport

Current Time: Dec 20, 2014 at 3:21:12 AM

Latest Report: Dec 20, 2014 at 2:54 AM


Visibility: 10 mi

Pressure: 30.22 "Hg

Humidity: 72%

Dew point: 22 °F

Location of Warminster TownshipLocation

Historic Weather in Warminster Township — Graph

°F

Warminster Township temperature yesterday

Maximum temperature yesterday: 38 °F (at 12:54 PM)
Minimum temperature yesterday: 29 °F (at 6:54 PM)
Average temperature yesterday: 33 °F

Past Weeks' High & Low Weather Summary

 TemperatureHumidityPressure
High49 °F (Dec 17, 12:54 PM)100% (Dec 5, 5:54 PM)30.66 "Hg (Dec 5, 5:54 PM)
Low22 °F (Dec 8, 5:54 AM)35% (Dec 7, 1:54 PM)29.68 "Hg (Dec 10, 5:04 PM)
Average35 °F79%30.07 "Hg
* Reported Dec 5 1:54 AM — Dec 20 1:54 AM, Warminster Township, Weather by CustomWeather, © 2014

Note: Actual official high and low records may vary slightly from our data, if they occured in-between our weather recording intervals... More about our weather records

Advertising

Warminster Township weather history for previous 24 hours

 ConditionsComfort  
Time TempWeatherWind HumidityBarometerVisibility
1:54 AM
Dec 20
30 °FOvercast.9 mph72%30.20 "Hg10 mi
12:54 AM31 °FOvercast.7 mph73%30.19 "Hg10 mi
11:54 PM
Dec 19
31 °FOvercast.7 mph69%30.20 "Hg10 mi
10:54 PM31 °FOvercast.5 mph67%30.21 "Hg10 mi
10:03 PM30 °FOvercast.7 mph69%30.18 "Hg10 mi
9:54 PM30 °FOvercast.3 mph69%30.19 "Hg10 mi
8:54 PM30 °FOvercast.8 mph66%30.19 "Hg10 mi
7:54 PM30 °FPassing clouds.10 mph69%30.17 "Hg10 mi
6:54 PM29 °FPassing clouds.7 mph72%30.18 "Hg10 mi
5:54 PM30 °FClear.6 mph69%30.15 "Hg10 mi
4:54 PM32 °FClear.8 mph66%30.13 "Hg10 mi
3:54 PM36 °FSunny.10 mph57%30.09 "Hg10 mi
2:54 PM38 °FSunny.12 mph55%30.08 "Hg10 mi
1:54 PM38 °FSunny.9 mph55%30.07 "Hg10 mi
12:54 PM38 °FPartly sunny.7 mph58%30.07 "Hg10 mi
11:54 AM36 °FOvercast.12 mph62%30.07 "Hg10 mi
10:54 AM35 °FOvercast.14 mph64%30.08 "Hg10 mi
9:54 AM34 °FOvercast.9 mph76%30.09 "Hg10 mi
8:54 AM34 °FOvercast.8 mph76%30.07 "Hg10 mi
7:54 AM33 °FOvercast.7 mph78%30.05 "Hg10 mi
6:54 AM33 °FOvercast.9 mph75%30.04 "Hg10 mi
5:54 AM34 °FOvercast.6 mph70%30.02 "Hg10 mi
4:54 AM34 °FOvercast.8 mph70%30.02 "Hg10 mi
3:54 AM34 °FOvercast.5 mph70%30.02 "Hg10 mi
Weather by CustomWeather, © 2014

See weather overviewHow to use our weather pages